Location: Sunny Point
(33.0946°N, 85.0574°W)
Time: 06:43:11
(UTC+00:00)

Envisat - Pass Details

Date: 29 May 2024
Orbit: 762 x 764 km, 98.3° (Epoch: 20 June)

Event Time Altitude Azimuth Distance (km) Brightness Sun altitude
Rises 07:50:35 0° 32° (NNE) 3,228 7.6 -26.7°
Reaches altitude 10° 07:53:32 10° 49° (NE) 2,298 6.4 -26.3°
Maximum altitude 07:57:06 19° 95° (E) 1,742 5.1 -25.9°
Enters shadow 08:00:05 12° 135° (SE) 2,142 5.2 -25.5°
